Location: Seasalter
(51.3333°N, 1.0167°E)
Time: 04:33:54
(UTC+00:00)

ATLAS 5 CENTAUR R/B - Pass Details

Date: 24 April 2024
Orbit: 421 x 1170 km, 63.3° (Epoch: 18 May)

Event Time Altitude Azimuth Distance (km) Brightness Sun altitude
Rises 21:21:40 0° 295° (WNW) 2,556 5.9 -17.4°
Reaches altitude 10° 21:24:20 10° 318° (NW) 1,774 5.2 -17.7°
Maximum altitude 21:26:55 17° 359° (N) 1,510 4.2 -18.0°
Drops below altitude 10° 21:29:48 10° 39° (NE) 2,021 4.3 -18.2°
Sets 21:33:09 0° 60° (ENE) 3,105 5.1 -18.5°
